Flag for Australia Weather past 2 weeks in Brisbane, Queensland, Australia

Now
70 °F

Partly sunny.


Feels Like: 70 °F
Forecast: 47 / 71 °F
Wind: 7 mph from South

Location: Brisbane Airport M. O

Current Time: Aug 28, 2015 at 12:30:58 PM

Latest Report: Aug 28, 2015 at 12:00 PM


Visibility: N/A

Pressure: 30.12 "Hg

Humidity: 57%

Dew point: 54 °F

Location of BrisbaneLocation

Historic Weather in Brisbane — Graph

°F

Brisbane temperature yesterday

Maximum temperature yesterday: 73 °F (at 12:00 PM)
Minimum temperature yesterday: 59 °F (at 6:00 AM)
Average temperature yesterday: 63 °F

Past Weeks' High & Low Weather Summary

 TemperatureHumidityPressure
High79 °F (Aug 25, 12:00 PM)100% (Aug 15, 1:00 AM)30.36 "Hg (Aug 15, 1:00 AM)
Low43 °F (Aug 14, 6:00 AM)17% (Aug 13, 3:00 PM)29.98 "Hg (Aug 17, 3:00 PM)
Average63 °F76%30.17 "Hg
* Reported Aug 13 11:00 AM — Aug 28 11:00 AM, Brisbane, Weather by CustomWeather, © 2015

Note: Actual official high and low records may vary slightly from our data, if they occured in-between our weather recording intervals... More about our weather records

Advertising

Brisbane weather history for previous 24 hours

 ConditionsComfort  
Time TempWeatherWind HumidityBarometerVisibility
11:00 AM
Fri, Aug 28
68 °FScattered clouds.8 mph64%30.18 "HgN/A
10:30 AM66 °FScattered clouds.12 mph68%30.18 "HgN/A
10:00 AM66 °FLight rain. Broken clouds.10 mph68%30.18 "HgN/A
9:00 AM64 °FScattered showers. Partly sunny.6 mph83%30.18 "HgN/A
8:00 AM63 °FLight rain. Partly sunny.2 mph88%30.18 "HgN/A
7:30 AM61 °FLight rain. Partly sunny.6 mph94%30.15 "Hg6 mi
7:00 AM59 °FLight rain. Broken clouds.6 mph100%30.15 "Hg6 mi
6:30 AM59 °FScattered showers. Broken clouds.5 mph94%30.15 "HgN/A
6:00 AM59 °FScattered showers. Partly sunny.6 mph100%30.15 "Hg6 mi
5:30 AM59 °FBroken clouds.6 mph94%30.12 "HgN/A
5:00 AM59 °FLight rain. Passing clouds.9 mph100%30.12 "HgN/A
4:30 AM59 °FClear.7 mph100%30.09 "Hg10 mi
4:00 AM59 °FLight rain. Passing clouds.8 mph100%30.12 "Hg6 mi
3:00 AM59 °FLight rain. Passing clouds.6 mph100%30.12 "Hg6 mi
2:30 AM59 °FScattered showers. Clear.No wind100%30.12 "HgN/A
2:00 AM59 °FSprinkles. Partly cloudy.5 mph100%30.12 "Hg6 mi
1:30 AM59 °FSprinkles. Passing clouds.6 mph94%30.15 "Hg3 mi
1:00 AM59 °FSprinkles. Passing clouds.7 mph94%30.12 "Hg4 mi
12:30 AM59 °FSprinkles. Passing clouds.5 mph94%30.15 "Hg6 mi
12:00 AM59 °FScattered showers. Passing clouds.6 mph94%30.15 "HgN/A
11:00 PM
Thu, Aug 27
61 °FClear.3 mph94%30.15 "Hg10 mi
10:00 PM61 °FScattered showers. Clear.1 mph94%30.15 "HgN/A
9:30 PM61 °FClear.7 mph88%30.15 "Hg10 mi
9:00 PM61 °FClear.2 mph88%30.15 "Hg10 mi
8:30 PM61 °FClear.No wind88%30.15 "Hg10 mi
8:00 PM61 °FClear.No wind88%30.15 "Hg10 mi
7:30 PM59 °FClear.No wind94%30.15 "Hg10 mi
7:00 PM61 °FScattered showers. Clear.2 mph88%30.12 "HgN/A
6:30 PM59 °FScattered showers. Clear.No wind94%30.12 "HgN/A
6:00 PM61 °FScattered showers. Clear.5 mph88%30.12 "HgN/A
5:30 PM61 °FScattered showers. Partly cloudy.5 mph88%30.12 "HgN/A
5:00 PM61 °FScattered showers. Clear.3 mph94%30.12 "HgN/A
4:30 PM61 °FScattered showers. Partly sunny.6 mph88%30.09 "HgN/A
4:00 PM61 °FSprinkles. Broken clouds.6 mph88%30.12 "Hg5 mi
3:30 PM61 °FSprinkles. Broken clouds.12 mph83%30.12 "Hg4 mi
3:00 PM66 °FSprinkles. Partly sunny.13 mph52%30.12 "HgN/A
2:30 PM70 °FSprinkles. Clear.2 mph40%30.09 "HgN/A
2:00 PM70 °FSprinkles. Clear.6 mph46%30.09 "HgN/A
1:00 PM72 °FSunny.10 mph47%30.09 "Hg10 mi
12:00 PM73 °FPassing clouds.6 mph31%30.12 "HgN/A
Weather by CustomWeather, © 2015

See weather overviewHow to use our weather pages